Tiempo cada hora Bartoszowiny

Hoy, 28 Febrero, Domingo

Tiempo Temperatura Precipitaciones Viento Presión Humedad
00:00 -1°C° 0 mm 3 mps 737 mmHg 89%
01:00 -2°C° 0 mm 3 mps 737 mmHg 92%
02:00 -2°C° 0 mm 3 mps 737 mmHg 92%
03:00 -2°C° 0 mm 3 mps 737 mmHg 93%
04:00 -2°C° 0 mm 3 mps 737 mmHg 93%
05:00 -2°C° 0 mm 3 mps 737 mmHg 91%
06:00 -2°C° 0 mm 3 mps 736 mmHg 89%
07:00 -3°C° 0 mm 4 mps 736 mmHg 87%
08:00 -1°C° 0 mm 4 mps 736 mmHg 80%
09:00 0°C° 0 mm 4 mps 736 mmHg 73%
10:00 +1°C° 0 mm 5 mps 736 mmHg 66%
11:00 +2°C° 0 mm 5 mps 736 mmHg 68%
12:00 +2°C° 0 mm 6 mps 736 mmHg 70%
13:00 +3°C° 0 mm 6 mps 735 mmHg 72%
14:00 +3°C° 0 mm 6 mps 735 mmHg 73%
15:00 +3°C° 0 mm 6 mps 735 mmHg 74%
16:00 +3°C° 0 mm 6 mps 735 mmHg 75%
17:00 +2°C° 0 mm 6 mps 734 mmHg 78%
18:00 +1°C° 0 mm 6 mps 734 mmHg 82%
19:00 -1°C° 0 mm 6 mps 734 mmHg 85%
20:00 -1°C° 0 mm 6 mps 735 mmHg 86%
21:00 0°C° 0 mm 5 mps 735 mmHg 86%
22:00 0°C° 0 mm 5 mps 735 mmHg 86%
23:00 0°C° 0 mm 5 mps 735 mmHg 88%

Mañana, 1 Marzo, Lunes

Tiempo Temperatura Precipitaciones Viento Presión Humedad
00:00 0°C° 0 mm 5 mps 735 mmHg 90%
01:00 0°C° 0 mm 4 mps 736 mmHg 91%
02:00 -1°C° 0 mm 4 mps 736 mmHg 92%
03:00 -1°C° 0 mm 4 mps 736 mmHg 92%
04:00 0°C° 0 mm 3 mps 736 mmHg 93%
05:00 0°C° 0 mm 3 mps 736 mmHg 93%
06:00 -1°C° 0 mm 3 mps 737 mmHg 94%
07:00 -1°C° 0 mm 2 mps 737 mmHg 94%
08:00 +1°C° 0 mm 2 mps 737 mmHg 91%
09:00 +2°C° 0 mm 2 mps 737 mmHg 88%
10:00 +2°C° 0 mm 2 mps 738 mmHg 85%
11:00 +3°C° 0 mm 2 mps 738 mmHg 82%
12:00 +3°C° 0 mm 2 mps 738 mmHg 80%
13:00 +4°C° 0 mm 2 mps 738 mmHg 78%
14:00 +4°C° 0 mm 2 mps 738 mmHg 77%
15:00 +5°C° 0 mm 2 mps 738 mmHg 76%
16:00 +5°C° 0 mm 2 mps 738 mmHg 76%
17:00 +4°C° 0 mm 2 mps 738 mmHg 79%
18:00 +4°C° 0 mm 2 mps 738 mmHg 82%
19:00 +3°C° 0 mm 2 mps 738 mmHg 85%
20:00 +3°C° 0 mm 2 mps 738 mmHg 87%
21:00 +2°C° 0 mm 2 mps 738 mmHg 89%
22:00 +1°C° 0 mm 2 mps 737 mmHg 91%
23:00 +1°C° 0 mm 2 mps 737 mmHg 92%

Pasado mañana, 2 Marzo, Martes

Tiempo Temperatura Precipitaciones Viento Presión Humedad
00:00 +1°C° 0 mm 2 mps 737 mmHg 92%
01:00 -1°C° 0 mm 2 mps 737 mmHg 92%
02:00 -1°C° 0 mm 3 mps 737 mmHg 92%
03:00 -1°C° 0 mm 3 mps 737 mmHg 92%
04:00 -1°C° 0 mm 3 mps 736 mmHg 92%
05:00 -1°C° 0 mm 3 mps 736 mmHg 92%
06:00 -1°C° 0 mm 3 mps 736 mmHg 91%
07:00 -1°C° 0 mm 3 mps 736 mmHg 91%
08:00 0°C° 0 mm 4 mps 736 mmHg 83%
09:00 +3°C° 0 mm 4 mps 736 mmHg 76%
10:00 +5°C° 0 mm 5 mps 736 mmHg 68%
11:00 +6°C° 0 mm 5 mps 736 mmHg 64%
12:00 +7°C° 0 mm 5 mps 736 mmHg 60%
13:00 +8°C° 0 mm 5 mps 736 mmHg 56%
14:00 +8°C° 0 mm 5 mps 736 mmHg 56%
15:00 +7°C° 0 mm 4 mps 735 mmHg 57%
16:00 +7°C° 0 mm 4 mps 735 mmHg 58%
17:00 +6°C° 0 mm 4 mps 735 mmHg 64%
18:00 +4°C° 0 mm 3 mps 735 mmHg 70%
19:00 +3°C° 0 mm 3 mps 735 mmHg 77%
20:00 +3°C° 0 mm 2 mps 736 mmHg 80%
21:00 +3°C° 0 mm 2 mps 736 mmHg 83%
22:00 +2°C° 0 mm 2 mps 736 mmHg 86%
23:00 +2°C° 0 mm 2 mps 736 mmHg 87%

3 Marzo, Miércoles

Tiempo Temperatura Precipitaciones Viento Presión Humedad
00:00 +2°C° 0 mm 2 mps 736 mmHg 88%
01:00 +2°C° 0 mm 1 mps 736 mmHg 89%
02:00 +2°C° 0 mm 1 mps 736 mmHg 89%
03:00 +2°C° 0 mm 1 mps 735 mmHg 90%
04:00 +1°C° 0 mm 1 mps 735 mmHg 90%
05:00 +1°C° 0 mm 1 mps 735 mmHg 90%
06:00 +1°C° 0 mm 1 mps 735 mmHg 91%
07:00 +1°C° 0 mm 1 mps 735 mmHg 91%
08:00 +3°C° 0 mm 1 mps 735 mmHg 83%
09:00 +5°C° 0 mm 1 mps 735 mmHg 75%
10:00 +7°C° 0 mm 1 mps 735 mmHg 67%
11:00 +8°C° 0 mm 1 mps 735 mmHg 62%
12:00 +9°C° 0 mm 1 mps 734 mmHg 57%
13:00 +10°C° 0 mm 1 mps 734 mmHg 52%
14:00 +10°C° 0 mm 1 mps 734 mmHg 53%
15:00 +10°C° 0 mm 1 mps 733 mmHg 54%
16:00 +10°C° 0 mm 1 mps 732 mmHg 55%
17:00 +8°C° 0 mm 1 mps 732 mmHg 60%
18:00 +7°C° 0 mm 1 mps 732 mmHg 64%
19:00 +5°C° 0 mm 1 mps 731 mmHg 69%
20:00 +5°C° 0 mm 1 mps 731 mmHg 70%
21:00 +5°C° 0 mm 1 mps 731 mmHg 72%
22:00 +3°C° 0 mm 2 mps 730 mmHg 73%
23:00 +3°C° 0 mm 2 mps 730 mmHg 75%

4 Marzo, Jueves

Tiempo Temperatura Precipitaciones Viento Presión Humedad
00:00 +2°C° 0 mm 2 mps 729 mmHg 77%
01:00 +2°C° 0 mm 2 mps 729 mmHg 78%
02:00 +2°C° 0 mm 2 mps 728 mmHg 81%
03:00 0°C° 0 mm 3 mps 728 mmHg 85%
04:00 0°C° 0 mm 3 mps 727 mmHg 88%
05:00 0°C° 0 mm 3 mps 727 mmHg 88%
06:00 0°C° 0 mm 3 mps 726 mmHg 89%
07:00 0°C° 0 mm 3 mps 726 mmHg 90%
08:00 +2°C° 0 mm 3 mps 726 mmHg 83%
09:00 +4°C° 0 mm 4 mps 725 mmHg 76%
10:00 +5°C° 0 mm 4 mps 725 mmHg 69%
11:00 +7°C° 0 mm 4 mps 725 mmHg 64%
12:00 +8°C° 0 mm 5 mps 724 mmHg 60%
13:00 +9°C° 0 mm 5 mps 724 mmHg 55%
14:00 +10°C° 0 mm 4 mps 723 mmHg 57%
15:00 +9°C° 0 mm 3 mps 723 mmHg 58%
16:00 +9°C° 0 mm 3 mps 722 mmHg 60%
17:00 +8°C° 0 mm 3 mps 722 mmHg 64%
18:00 +7°C° 0 mm 3 mps 721 mmHg 69%
19:00 +5°C° 0 mm 3 mps 721 mmHg 73%
20:00 +5°C° 0 mm 3 mps 720 mmHg 74%
21:00 +5°C° 0 mm 4 mps 720 mmHg 74%
22:00 +5°C° 0 mm 4 mps 720 mmHg 75%
23:00 +5°C° 0.2 mm 4 mps 719 mmHg 78%

5 Marzo, Viernes

Tiempo Temperatura Precipitaciones Viento Presión Humedad
00:00 +5°C° 0.2 mm 5 mps 719 mmHg 81%
01:00 +5°C° 0.2 mm 5 mps 718 mmHg 85%
02:00 +5°C° 0.6 mm 5 mps 718 mmHg 87%
03:00 +4°C° 0.6 mm 4 mps 718 mmHg 90%
04:00 +4°C° 0.6 mm 4 mps 718 mmHg 92%
05:00 +2°C° 0.6 mm 5 mps 718 mmHg 93%
06:00 +1°C° 0.6 mm 5 mps 719 mmHg 93%
07:00 -1°C° 0.6 mm 6 mps 719 mmHg 94%
08:00 -2°C° 0.1 mm 6 mps 720 mmHg 90%
09:00 -3°C° 0.1 mm 6 mps 720 mmHg 86%
10:00 -4°C° 0.1 mm 6 mps 721 mmHg 82%
11:00 -4°C° 0 mm 6 mps 722 mmHg 77%
12:00 -3°C° 0 mm 6 mps 722 mmHg 72%
13:00 -2°C° 0 mm 5 mps 723 mmHg 68%
14:00 -2°C° 0 mm 5 mps 724 mmHg 65%
15:00 -4°C° 0 mm 5 mps 724 mmHg 62%
16:00 -4°C° 0 mm 5 mps 725 mmHg 59%
17:00 -3°C° 0 mm 4 mps 725 mmHg 61%
18:00 -4°C° 0 mm 4 mps 726 mmHg 63%
19:00 -5°C° 0 mm 3 mps 727 mmHg 65%
20:00 -5°C° 0 mm 3 mps 727 mmHg 63%
21:00 -4°C° 0 mm 2 mps 728 mmHg 61%
22:00 -4°C° 0 mm 2 mps 728 mmHg 59%
23:00 -4°C° 0 mm 2 mps 728 mmHg 59%
Mostrar más

Necesitamos Su Consentimiento

Meteoprog y nuestros Proveedores de Servicios pueden almacenar y acceder a sus datos personales como cookies, identificadores de dispositivo u otras tecnologías similares de su dispositivo y procesar dichos datos para personalizar contenido y anuncios, además de ofrecer funciones de redes sociales y analizar el tráfico.

  • Almacenar y/o acceder a información en su dispositivo

    Se puede almacenar o acceder a cookies, identificadores de dispositivo u otra información de su dispositivo para los fines anteriormente indicados.

  • Anuncios y contenido personalizados, medición de anuncios y contenido, percepciones del público, y desarrollo de productos

    Los anuncios y el contenido pueden personalizarse en base a su perfil. Se pueden añadir más datos para personalizar mejor los anuncios y contenidos. Se puede medir el rendimiento de los anuncios y contenidos. Se puede obtener la percepción sobre el público que ha visto los anuncios y contenidos. Dichos datos pueden usarse para desarrollar o mejorar la experiencia del usuario, sistemas y software.

Al hacer clic en ‘Estoy De Acuerdo’ usted permitirá el uso de las cookies, identificadores de dispositivo, balizas web u otras tecnologías similares indicadas. Su configuración puede cambiarse desde el navegador de su dispositivo.

Para ciertos fines, los intereses legítimos pueden ser considerados por encima del consentimiento. Puede leer más sobre ello en nuestra Política de Privacidad y Cookies.